Vertical_Velocity
1 -2 -4 -3 -2 -1 -1 -0 0 1 2 2 -1 -3 -3 -2 -3 -4 -4 -4 -5 -5 -5 -4 -2 -0 1 -1 -2 -2 -1 -1 -1 -1 0 1 1 0 -0 0 0 0 -0 -0 -0 -0 -1 -1 -1 -1 -0 -0 -0 -0 0 0 0 -0 -0 -1 -1 -0 -0 -0 -1 -1 -1 -1 -1
-3 -4 -4 -2 -0 2 3 3 2 2 2 2 1 0 -1 -2 -4 -5 -5 -4 -5 -4 -2 -0 2 1 -0 -2 -2 -1 -0 -1 -1 -1 -0 0 1 1 0 -0 0 0 0 0 -0 -1 -1 -1 -1 -1 -1 -1 -1 -0 -0 -0 -0 -0 -0 -1 -1 -1 -1 -1 -1 -1 -1 -1 -1
-3 -2 -0 1 1 1 1 -1 -3 -3 -2 1 2 4 3 1 -2 -3 -4 -4 -2 0 2 2 1 0 -1 -1 0 0 0 -0 -0 -0 -0 -0 0 0 0 0 0 1 1 1 1 0 -0 -1 -1 -1 -1 -1 -0 -0 -0 -0 -0 -0 -0 -1 -1 -1 -1 -1 -1 -1 -1 -1 -1
0 -1 -2 -4 -5 -6 -8 -8 -7 -5 -3 -0 2 4 4 2 -0 -1 -1 1 3 3 1 -1 -1 -0 0 1 0 0 1 2 1 1 0 -0 -1 -1 -1 -0 -0 -0 0 1 1 1 1 1 1 1 1 0 0 0 0 0 -0 -0 -0 -0 -1 -1 -1 -1 -1 -1 -1 -1 -1
-1 -4 -7 -8 -8 -8 -6 -4 -3 -1 0 2 3 4 4 3 2 3 4 6 1 -2 -3 -1 0 1 0 1 0 1 1 2 2 2 1 1 -0 -0 -0 -0 -0 -0 -0 0 1 1 1 1 1 2 2 2 2 2 1 1 1 0 -0 -1 -1 -1 -1 -1 -1 -1 -1 -1 -1
-5 -5 -4 -4 -2 -0 2 3 2 2 2 3 3 2 1 1 1 1 0 -2 -5 -3 0 4 4 3 2 2 2 2 1 1 1 1 1 1 1 0 0 -0 0 0 0 0 1 1 1 1 1 1 1 2 2 2 1 1 1 1 0 -0 -1 -1 -1 -1 -1 -1 -1 -1 -1
-4 -4 -3 -2 0 1 2 2 4 5 5 4 1 -1 -3 -4 -4 -5 -5 -5 -0 3 5 3 2 2 1 0 1 1 1 0 -0 0 0 1 1 0 -0 -0 0 0 0 0 0 0 0 1 1 0 0 -0 0 0 1 1 1 1 1 -0 -1 -1 -1 -1 -1 -1 -1 -1 -1
2 1 -2 -3 -1 -1 -0 1 3 4 3 1 -1 -3 -3 -3 -3 -2 1 5 5 2 -1 -2 -2 -2 -2 -1 -1 -1 -1 -1 -1 -0 -0 0 0 0 0 0 -0 -0 -0 0 -0 -0 -0 0 0 -0 -1 -1 -1 -1 -1 -0 0 0 1 0 -0 -1 -1 -1 -1 -1 -1 -1 -1
5 3 2 2 2 1 1 1 1 -1 -3 -5 -4 -2 1 2 2 3 4 3 -1 -2 -2 -1 -2 -1 0 1 -0 -1 -1 -1 -2 -1 -1 -1 -1 -0 0 0 -1 -1 -1 -0 -0 -0 -0 0 0 0 -0 -0 -1 -1 -0 -0 -0 -0 -0 0 -0 -0 -1 -1 -1 -1 -1 -1 -2
-2 -2 0 3 2 3 3 3 2 -0 -1 -2 0 3 5 6 5 3 1 -3 -1 2 3 0 0 1 2 2 1 1 -0 -1 -1 -1 -2 -2 -2 -2 -2 -2 -2 -2 -2 -2 -1 -0 0 -0 -0 0 1 1 1 0 0 0 0 -0 -0 -0 -0 -1 -1 -1 -1 -1 -1 -2 -2
-4 -3 -3 -3 -2 1 3 4 3 3 4 5 5 6 7 6 4 3 2 3 6 4 1 -1 0 -0 -1 -1 1 1 1 1 1 0 -1 -2 -2 -2 -2 -2 -2 -2 -3 -3 -2 -2 -1 -1 -1 -1 -0 0 0 0 0 0 0 0 -0 -1 -1 -1 -1 -1 -1 -1 -1 -1 -1
0 1 0 -1 0 2 3 2 1 2 4 4 5 5 4 2 2 3 5 6 3 -0 -1 1 1 -0 -1 0 1 1 2 2 2 1 0 -1 -1 -1 -1 -0 -0 -1 -1 -1 -2 -3 -3 -3 -2 -2 -2 -2 -1 -1 -1 -0 -0 -0 -1 -1 -1 -1 -1 -1 -1 -1 -1 -1 -1
3 4 4 4 5 4 3 1 1 1 2 1 1 2 2 1 3 4 4 1 -1 1 4 5 3 2 2 2 1 1 1 1 1 1 1 1 0 0 0 0 0 0 0 -0 -1 -2 -3 -3 -2 -2 -2 -3 -3 -3 -2 -2 -1 -1 -2 -2 -2 -2 -2 -1 -1 -1 -1 -1 -1
6 5 4 3 4 3 2 1 1 1 1 0 -0 1 2 3 4 4 1 -1 1 4 5 4 4 4 3 2 1 0 -0 0 1 2 2 2 1 1 0 -0 -0 -0 -0 -0 -1 -1 -2 -2 -2 -2 -2 -3 -3 -3 -2 -2 -2 -2 -2 -2 -2 -2 -1 -1 -1 -1 -1 -1 -1
7 5 3 4 3 2 1 1 -0 -0 0 1 0 1 3 4 2 1 1 1 3 4 4 4 3 3 3 4 3 3 2 2 1 1 2 2 2 1 0 -0 -0 -1 -1 -1 -1 -1 -1 -1 -1 -1 -1 -1 -2 -2 -2 -2 -2 -1 -1 -1 -0 -0 -0 -0 -1 -1 -0 -1 -1
4 3 4 5 3 1 0 -0 -1 0 1 0 1 2 3 2 0 1 2 2 3 5 6 4 2 2 3 5 5 6 5 4 2 2 1 1 -0 -0 -0 -0 -1 -1 -2 -2 -2 -2 -1 -0 0 0 0 0 -0 -0 -1 -1 -1 -1 -0 0 1 1 1 0 0 -0 -0 -0 -0
2 2 2 2 0 -1 -1 -1 -0 -0 -0 -1 1 1 1 -1 -0 0 1 -0 1 3 3 2 2 2 3 2 4 5 5 3 2 1 -0 -2 -2 -2 -2 -2 -2 -2 -2 -2 -2 -2 -1 0 1 1 2 1 1 1 0 0 0 0 0 1 1 1 1 1 1 1 0 0 0
1 1 1 1 -1 -1 -2 -1 -1 -1 -2 -2 -1 -1 -1 -1 -1 -1 -1 -1 -0 -0 -0 1 3 3 1 -0 1 1 1 -0 -1 -2 -2 -2 -1 -1 -2 -2 -1 -1 -1 -1 -1 -2 -1 -1 0 1 1 2 1 2 2 2 1 1 1 1 1 1 1 1 1 1 0 0 0
-1 0 0 -0 -2 -2 -1 -0 -1 -2 -2 -2 -1 -1 -0 -0 -2 -1 -0 1 -0 -0 1 2 3 2 1 0 -0 -1 -1 -3 -3 -2 -0 0 1 2 1 1 1 1 1 1 1 1 1 1 1 0 0 0 1 1 2 2 2 2 2 2 2 2 1 1 1 0 0 0 0
-0 -0 -2 -4 -3 -1 0 -0 -0 -0 0 1 1 1 1 -1 -1 -0 -0 -2 -2 1 4 4 2 1 1 2 2 1 -0 -2 0 1 2 2 3 3 2 2 2 2 2 2 2 2 3 2 2 1 1 0 0 0 0 1 1 2 2 2 2 2 1 1 1 0 0 0 -0
1 -1 -3 -2 0 1 0 -0 1 2 3 3 2 1 -0 -0 1 -0 -2 -4 -0 3 5 4 2 0 -1 0 2 1 1 1 3 3 2 2 2 1 1 2 2 2 2 3 2 2 2 2 2 2 2 1 1 1 0 0 1 1 2 2 2 2 2 1 1 0 0 -0 -0
-1 -0 1 4 3 2 2 2 4 5 4 2 1 1 2 2 1 -0 0 3 5 5 3 1 1 -0 -1 -2 -1 -0 1 4 3 3 2 2 2 3 4 4 4 3 3 2 2 1 1 1 2 2 2 2 2 2 2 2 2 2 2 2 2 1 1 1 0 0 -0 -0 -0
1 4 5 6 5 5 5 6 6 5 3 2 2 3 3 2 1 2 5 7 5 3 1 1 1 1 1 1 2 3 4 5 4 4 3 3 4 5 5 5 3 2 1 0 0 0 1 1 1 2 2 2 3 3 3 3 2 2 2 2 1 1 1 -0 -0 -0 -0 0 1
5 6 6 6 6 6 5 5 4 3 2 1 1 1 2 2 3 5 5 3 1 1 2 3 3 3 4 6 7 7 5 3 3 3 3 3 3 3 3 2 1 1 0 0 1 0 0 -0 -0 1 1 2 3 3 3 3 3 2 2 2 1 1 0 -0 -1 -1 -0 0 1
6 5 4 4 3 3 3 3 2 1 -0 -1 -0 1 2 3 3 2 1 0 0 1 2 3 4 5 6 7 7 6 5 4 2 1 1 1 1 2 2 1 1 1 2 2 3 3 2 2 1 1 2 3 3 4 4 3 3 3 2 2 1 1 -0 -1 -1 -1 -0 1 1
6 5 4 2 1 2 2 1 -0 -0 1 2 4 4 3 2 1 1 1 1 1 2 3 5 5 5 5 4 5 5 6 6 5 3 2 -0 0 1 1 1 1 1 1 2 3 4 4 5 5 5 5 4 4 4 3 3 2 3 3 2 2 1 -0 -1 -1 -0 1 1 1
5 4 2 1 3 2 1 -1 1 4 5 5 4 2 1 0 2 3 3 3 2 4 5 6 5 4 3 3 3 3 3 3 4 5 4 1 0 -0 -1 -1 -0 -0 0 1 3 4 4 5 6 6 6 6 4 3 2 1 2 2 2 2 1 0 -0 -1 -0 1 1 2 1
2 2 2 4 4 2 2 3 6 6 4 2 1 0 1 3 4 4 3 3 4 6 6 5 3 3 3 4 3 1 0 1 2 3 3 4 3 2 1 0 0 0 1 4 5 5 5 5 4 4 4 4 4 4 3 3 2 2 2 1 0 0 -0 0 1 2 3 2 1
1 2 4 4 2 3 4 6 4 1 0 1 3 4 5 5 3 2 3 4 4 4 2 -0 0 2 4 3 1 2 4 5 3 2 2 4 4 5 4 3 2 3 4 6 6 6 5 5 3 3 3 3 3 3 3 3 3 2 1 1 0 -0 0 1 2 3 3 2 2
4 4 4 2 2 3 3 1 1 2 4 5 6 6 5 3 2 2 2 1 -0 -2 -3 -3 -0 1 0 -2 1 4 5 4 3 3 3 2 2 2 3 4 4 5 6 7 6 6 5 4 3 3 3 3 3 2 2 2 2 2 2 1 1 1 1 1 2 2 2 2 2
4 4 3 3 4 3 2 2 4 6 6 6 5 3 1 0 0 -1 -1 -2 -1 -0 1 4 3 1 -1 -0 3 4 3 1 2 2 2 1 1 1 2 3 4 5 6 7 6 5 5 4 3 2 2 2 2 2 2 2 2 2 2 2 1 2 2 2 2 2 2 2 1
3 4 4 5 4 3 4 5 6 6 4 3 2 1 -0 -1 -1 -1 0 2 4 5 6 5 4 3 3 5 5 4 3 2 1 1 1 2 3 4 4 4 4 5 6 6 6 5 4 4 3 2 1 1 2 2 2 3 3 3 3 3 3 3 3 3 3 3 2 2 1
4 4 4 4 4 5 5 6 4 3 2 2 1 1 1 1 3 5 6 6 5 3 1 -1 -0 1 1 1 2 2 3 2 1 1 2 4 4 5 5 4 4 5 6 6 5 5 5 4 3 2 1 2 3 4 4 5 5 5 5 5 5 5 4 4 3 3 2 2 2
3 4 4 4 5 5 5 4 3 3 2 3 3 2 3 4 4 4 3 1 0 0 0 1 1 -0 -1 -1 1 1 1 2 3 4 4 4 4 4 4 3 4 5 6 6 5 5 5 4 3 2 2 2 4 5 6 5 5 5 4 4 5 5 5 4 4 4 3 3 3
3 4 4 5 5 4 4 3 3 3 3 3 2 3 3 2 1 -1 -1 -2 1 4 6 6 6 6 6 6 6 5 4 4 4 3 3 3 3 3 3 3 4 6 7 6 6 5 5 4 3 2 1 2 4 6 6 5 4 4 4 4 4 4 4 3 3 3 3 3 3
3 3 4 4 4 4 3 3 3 3 3 2 2 2 2 2 2 2 2 2 4 5 5 4 4 5 6 6 6 6 5 4 3 3 3 3 3 3 3 4 6 8 8 7 6 6 5 4 2 1 1 3 5 6 6 5 4 4 4 4 3 3 2 2 3 3 3 2 2
4 3 3 2 2 2 3 3 3 3 3 2 2 2 2 3 4 4 3 4 5 4 2 0 1 1 1 0 1 2 3 4 5 5 5 4 4 5 5 7 8 9 8 7 6 6 5 3 0 -1 1 4 6 6 5 4 4 4 4 3 3 3 2 2 2 2 2 2 2
4 3 2 1 1 1 2 3 3 3 3 3 3 3 3 3 2 2 2 2 3 2 1 1 2 2 1 1 2 4 5 6 7 7 7 7 7 7 8 9 10 8 7 6 5 4 3 0 -1 -0 2 6 6 5 3 3 3 3 2 2 2 2 3 3 3 2 2 2 2
3 1 0 -0 0 1 2 2 3 3 2 2 3 4 4 3 3 2 2 3 3 3 3 3 4 4 4 5 6 7 7 7 8 8 9 9 10 10 10 10 9 7 5 4 4 3 1 -1 -1 2 5 7 6 4 3 2 2 2 2 2 2 2 2 2 2 2 2 2 1
0 -0 -0 0 0 1 1 2 2 2 1 2 2 2 2 3 3 4 5 6 6 6 6 5 5 5 5 5 6 6 6 6 7 7 8 9 9 10 9 9 7 5 4 3 3 2 -0 -1 1 4 6 6 5 4 3 3 3 2 2 2 1 2 2 2 2 2 2 2 1
1 1 2 2 2 2 2 2 2 2 2 3 3 3 3 4 4 5 5 5 6 5 5 5 5 5 5 5 5 5 5 5 5 5 6 7 7 7 7 7 5 4 3 3 2 1 1 1 4 5 6 5 4 3 3 3 2 2 1 1 1 1 1 2 2 2 1 1 1
Height
1470 1472 1474 1477 1480 1482 1485 1487 1490 1492 1495 1497 1499 1501 1503 1505 1506 1509 1511 1513 1515 1516 1519 1521 1524 1526 1529 1531 1533 1535 1536 1538 1540 1542 1543 1545 1546 1548 1549 1550 1551 1553 1554 1555 1556 1557 1558 1559 1560 1561 1562 1563 1564 1565 1566 1566 1567 1568 1569 1570 1571 1571 1572 1572 1573 1574 1574 1575 1575
1466 1469 1471 1474 1477 1480 1482 1485 1487 1490 1492 1495 1496 1498 1501 1502 1504 1506 1508 1511 1513 1515 1517 1520 1522 1525 1527 1529 1531 1533 1535 1536 1538 1540 1542 1543 1545 1546 1548 1549 1550 1551 1553 1554 1555 1556 1557 1558 1559 1560 1561 1562 1563 1564 1565 1566 1567 1567 1568 1569 1570 1571 1571 1572 1573 1573 1574 1574 1575
1463 1466 1468 1471 1474 1476 1479 1481 1484 1486 1489 1492 1494 1496 1499 1501 1502 1504 1506 1509 1511 1514 1516 1518 1521 1523 1525 1527 1529 1531 1533 1535 1537 1538 1540 1542 1543 1545 1546 1548 1549 1550 1552 1553 1554 1555 1556 1557 1558 1559 1560 1561 1562 1563 1564 1565 1566 1567 1568 1568 1569 1570 1571 1571 1572 1573 1573 1574 1575
1460 1462 1465 1467 1470 1472 1475 1478 1481 1483 1486 1489 1492 1494 1496 1499 1501 1503 1505 1507 1510 1512 1514 1516 1519 1521 1523 1526 1527 1529 1531 1533 1535 1537 1538 1540 1542 1543 1545 1546 1548 1549 1550 1552 1553 1554 1555 1556 1557 1558 1559 1560 1561 1562 1563 1564 1565 1566 1567 1567 1568 1569 1570 1571 1571 1572 1573 1573 1574
1457 1459 1461 1464 1467 1470 1472 1475 1478 1481 1484 1486 1489 1491 1494 1496 1499 1501 1503 1506 1508 1510 1512 1515 1517 1519 1521 1524 1526 1528 1530 1532 1534 1535 1537 1539 1540 1542 1543 1545 1546 1548 1549 1550 1552 1553 1554 1555 1556 1557 1558 1559 1560 1561 1562 1563 1564 1565 1566 1566 1567 1568 1569 1570 1571 1571 1572 1572 1573
1453 1456 1458 1461 1464 1467 1471 1473 1476 1479 1481 1483 1486 1488 1491 1493 1496 1498 1501 1503 1505 1508 1511 1513 1515 1517 1520 1522 1524 1526 1528 1530 1532 1534 1535 1537 1539 1540 1542 1543 1545 1546 1548 1549 1550 1552 1553 1554 1555 1556 1557 1558 1559 1560 1561 1562 1563 1564 1565 1566 1566 1567 1568 1569 1570 1570 1571 1572 1572
1450 1453 1456 1459 1462 1465 1467 1471 1473 1476 1478 1481 1483 1485 1488 1490 1493 1495 1498 1501 1504 1506 1508 1511 1513 1515 1517 1520 1522 1524 1526 1528 1530 1531 1533 1535 1537 1538 1540 1541 1543 1545 1546 1548 1549 1550 1551 1553 1554 1555 1556 1557 1558 1559 1560 1561 1562 1563 1564 1565 1565 1566 1567 1568 1569 1569 1570 1571 1571
1448 1451 1453 1456 1459 1461 1465 1467 1470 1473 1475 1477 1480 1482 1485 1488 1490 1493 1496 1499 1501 1503 1506 1508 1511 1513 1515 1517 1520 1522 1524 1526 1528 1530 1531 1533 1535 1537 1538 1540 1541 1543 1545 1546 1547 1549 1550 1551 1552 1554 1555 1556 1556 1558 1559 1560 1561 1562 1563 1563 1564 1565 1566 1567 1567 1568 1569 1570 1571
1446 1448 1451 1453 1456 1459 1462 1465 1467 1469 1472 1474 1477 1480 1483 1486 1489 1491 1494 1496 1498 1501 1503 1506 1508 1511 1513 1516 1518 1520 1521 1524 1526 1527 1530 1531 1533 1535 1536 1538 1540 1541 1543 1544 1546 1547 1548 1550 1551 1552 1553 1554 1555 1556 1557 1559 1560 1561 1561 1562 1563 1564 1565 1566 1566 1567 1568 1569 1570
1441 1444 1447 1450 1453 1456 1459 1462 1464 1467 1469 1472 1475 1478 1481 1484 1486 1489 1491 1494 1496 1499 1501 1504 1506 1509 1511 1513 1516 1518 1520 1522 1524 1526 1527 1529 1531 1533 1535 1536 1538 1539 1541 1542 1544 1546 1547 1548 1549 1551 1552 1553 1554 1555 1556 1557 1558 1559 1560 1561 1562 1563 1564 1565 1566 1566 1567 1568 1568
1438 1441 1444 1447 1450 1453 1456 1459 1461 1464 1467 1470 1473 1476 1479 1481 1484 1487 1489 1492 1494 1496 1499 1501 1504 1506 1509 1511 1513 1516 1518 1520 1522 1524 1526 1527 1529 1531 1533 1534 1536 1537 1539 1541 1542 1544 1545 1546 1548 1549 1551 1552 1553 1554 1555 1556 1557 1558 1559 1560 1561 1562 1563 1563 1564 1565 1566 1566 1567
1436 1439 1441 1444 1447 1450 1453 1456 1458 1461 1464 1467 1470 1473 1476 1479 1481 1485 1487 1490 1492 1494 1497 1499 1502 1504 1506 1509 1511 1514 1516 1518 1520 1522 1524 1526 1527 1529 1531 1533 1534 1536 1537 1539 1541 1542 1543 1545 1546 1547 1549 1550 1551 1552 1554 1555 1556 1557 1558 1559 1560 1561 1561 1562 1563 1564 1565 1566 1566
1434 1436 1439 1442 1445 1447 1450 1452 1455 1458 1461 1464 1467 1470 1473 1476 1479 1482 1485 1487 1489 1492 1495 1497 1500 1502 1505 1507 1509 1511 1513 1516 1518 1520 1522 1523 1525 1527 1529 1531 1532 1534 1536 1537 1539 1540 1541 1543 1544 1546 1547 1548 1550 1551 1552 1553 1554 1555 1556 1557 1558 1559 1560 1561 1562 1563 1564 1564 1565
1431 1434 1436 1439 1441 1444 1446 1449 1452 1455 1458 1461 1464 1467 1470 1473 1476 1479 1481 1484 1487 1490 1492 1495 1497 1500 1502 1505 1507 1509 1511 1513 1516 1518 1520 1521 1523 1525 1527 1528 1530 1532 1534 1535 1537 1538 1540 1541 1543 1544 1546 1547 1548 1549 1551 1552 1553 1554 1555 1556 1557 1558 1559 1560 1561 1561 1562 1563 1564
1428 1431 1433 1436 1438 1441 1443 1446 1449 1452 1455 1458 1461 1464 1467 1471 1473 1476 1479 1481 1484 1487 1490 1492 1495 1497 1500 1502 1505 1507 1509 1511 1513 1515 1517 1519 1521 1523 1525 1526 1528 1530 1531 1533 1535 1536 1538 1540 1541 1543 1544 1545 1546 1548 1549 1550 1551 1553 1554 1555 1556 1557 1558 1559 1560 1560 1561 1562 1563
1425 1428 1430 1433 1435 1437 1440 1443 1446 1449 1452 1455 1458 1461 1464 1467 1470 1473 1476 1479 1481 1484 1487 1490 1492 1495 1497 1500 1502 1505 1507 1509 1511 1513 1515 1517 1519 1521 1522 1524 1526 1528 1530 1531 1533 1535 1536 1538 1540 1541 1542 1544 1545 1546 1548 1549 1550 1551 1552 1554 1555 1556 1557 1557 1558 1559 1560 1561 1562
1422 1424 1427 1429 1432 1434 1437 1440 1443 1446 1449 1452 1455 1458 1461 1464 1467 1470 1473 1476 1478 1481 1484 1486 1490 1492 1495 1497 1500 1502 1504 1506 1508 1510 1512 1514 1516 1518 1520 1522 1524 1526 1527 1529 1531 1533 1535 1536 1538 1540 1541 1542 1544 1545 1546 1547 1549 1550 1551 1552 1553 1554 1555 1556 1557 1558 1559 1560 1561
1419 1421 1424 1426 1429 1431 1434 1437 1440 1443 1446 1449 1452 1455 1458 1461 1464 1466 1470 1472 1475 1477 1481 1484 1487 1489 1491 1494 1496 1499 1501 1503 1505 1507 1510 1512 1514 1516 1518 1520 1522 1524 1526 1527 1529 1531 1532 1534 1536 1538 1539 1541 1542 1543 1545 1546 1547 1548 1549 1551 1552 1553 1554 1555 1556 1556 1557 1558 1559
1415 1418 1421 1423 1426 1428 1431 1434 1437 1440 1443 1446 1449 1452 1455 1458 1461 1463 1466 1469 1472 1475 1478 1481 1484 1486 1489 1491 1494 1496 1498 1501 1503 1505 1508 1510 1512 1514 1516 1518 1520 1522 1524 1526 1527 1529 1531 1532 1534 1536 1537 1539 1540 1542 1543 1544 1546 1547 1548 1549 1550 1551 1552 1553 1554 1555 1556 1557 1558
1412 1415 1417 1420 1423 1426 1429 1431 1435 1437 1441 1444 1446 1449 1452 1455 1458 1461 1463 1466 1469 1472 1475 1478 1481 1483 1486 1489 1491 1494 1496 1498 1501 1504 1506 1508 1510 1512 1514 1516 1518 1520 1522 1524 1525 1527 1529 1531 1532 1534 1535 1537 1538 1540 1541 1542 1544 1545 1546 1547 1548 1549 1550 1551 1552 1553 1554 1555 1556
1409 1411 1414 1417 1421 1423 1426 1429 1432 1435 1438 1441 1444 1446 1449 1452 1455 1458 1460 1463 1466 1469 1472 1475 1478 1481 1483 1486 1488 1491 1494 1496 1499 1501 1504 1506 1508 1510 1512 1514 1516 1518 1520 1521 1523 1525 1526 1528 1530 1531 1533 1535 1536 1537 1539 1540 1541 1543 1544 1545 1546 1547 1549 1550 1550 1551 1552 1553 1554
1407 1409 1412 1415 1418 1421 1424 1427 1430 1433 1436 1438 1441 1443 1446 1449 1452 1455 1458 1461 1464 1467 1469 1472 1475 1478 1481 1483 1486 1489 1492 1495 1497 1499 1501 1504 1506 1508 1510 1512 1514 1516 1517 1519 1521 1523 1524 1526 1528 1530 1531 1533 1534 1536 1537 1538 1539 1541 1542 1543 1544 1546 1546 1547 1548 1549 1550 1551 1552
1405 1407 1411 1413 1416 1419 1422 1425 1428 1430 1433 1435 1438 1441 1444 1446 1450 1453 1456 1459 1462 1464 1467 1470 1473 1476 1479 1481 1484 1487 1490 1492 1495 1497 1499 1501 1504 1506 1508 1510 1511 1513 1515 1517 1519 1520 1522 1524 1526 1527 1529 1531 1532 1534 1535 1536 1537 1539 1540 1541 1542 1543 1544 1545 1546 1547 1548 1549 1550
1403 1406 1409 1411 1414 1417 1420 1422 1425 1427 1430 1432 1435 1438 1441 1444 1447 1451 1454 1456 1459 1462 1465 1468 1471 1474 1477 1480 1483 1485 1488 1490 1492 1495 1497 1499 1501 1503 1506 1507 1509 1511 1513 1515 1516 1518 1520 1521 1523 1525 1527 1528 1530 1531 1533 1534 1536 1537 1538 1539 1540 1541 1542 1543 1544 1545 1546 1547 1548
1401 1404 1406 1409 1412 1414 1417 1420 1422 1424 1427 1429 1432 1435 1438 1441 1445 1448 1451 1454 1456 1459 1462 1466 1469 1472 1475 1477 1480 1483 1485 1488 1490 1492 1494 1496 1499 1501 1503 1505 1506 1509 1511 1513 1515 1516 1518 1520 1521 1523 1525 1526 1528 1529 1531 1532 1534 1535 1536 1537 1538 1539 1540 1541 1542 1543 1544 1546 1546
1399 1402 1404 1406 1409 1412 1414 1417 1419 1421 1424 1427 1430 1432 1436 1439 1442 1445 1448 1451 1454 1457 1460 1463 1466 1469 1472 1475 1477 1480 1483 1485 1488 1490 1492 1494 1496 1498 1500 1502 1504 1506 1508 1510 1512 1514 1516 1518 1520 1521 1523 1524 1526 1527 1529 1530 1531 1533 1534 1536 1536 1537 1538 1539 1540 1541 1542 1544 1545
1397 1400 1402 1404 1407 1409 1412 1414 1417 1420 1422 1425 1427 1430 1433 1436 1439 1442 1446 1449 1452 1455 1458 1461 1464 1466 1469 1472 1474 1477 1480 1482 1485 1487 1490 1491 1494 1496 1497 1500 1501 1504 1506 1508 1510 1512 1514 1516 1518 1520 1521 1522 1524 1525 1526 1528 1530 1531 1532 1533 1535 1536 1536 1537 1538 1540 1541 1542 1543
1395 1397 1400 1402 1405 1407 1410 1412 1415 1417 1420 1422 1424 1427 1430 1434 1437 1440 1443 1446 1449 1452 1455 1458 1461 1464 1466 1469 1472 1474 1477 1480 1482 1485 1487 1489 1491 1493 1495 1497 1499 1501 1504 1506 1508 1510 1512 1514 1516 1517 1519 1521 1522 1524 1525 1526 1528 1529 1530 1531 1532 1533 1534 1536 1537 1538 1539 1540 1541
1393 1396 1398 1401 1403 1405 1408 1411 1413 1415 1417 1420 1422 1425 1428 1431 1434 1437 1441 1443 1446 1449 1452 1455 1458 1461 1463 1466 1469 1472 1475 1477 1480 1482 1484 1487 1489 1491 1494 1496 1498 1500 1502 1504 1506 1508 1510 1512 1513 1515 1517 1519 1520 1522 1523 1525 1526 1527 1528 1529 1531 1531 1532 1534 1535 1536 1537 1538 1540
1392 1395 1397 1399 1401 1404 1406 1408 1410 1413 1416 1418 1421 1424 1426 1429 1432 1435 1438 1441 1443 1446 1449 1452 1455 1458 1461 1464 1467 1470 1472 1475 1477 1480 1482 1484 1487 1489 1491 1494 1496 1498 1501 1503 1505 1506 1508 1510 1511 1513 1515 1516 1518 1520 1521 1522 1524 1525 1526 1527 1528 1530 1531 1532 1533 1534 1536 1537 1538
1391 1393 1396 1398 1400 1402 1404 1406 1409 1411 1414 1416 1419 1421 1424 1427 1430 1432 1435 1438 1441 1444 1447 1450 1453 1456 1459 1462 1465 1467 1470 1472 1475 1477 1480 1482 1485 1487 1489 1492 1494 1496 1499 1501 1503 1504 1506 1508 1509 1511 1512 1514 1516 1517 1519 1521 1522 1523 1524 1526 1526 1528 1529 1530 1531 1532 1534 1535 1536
1391 1392 1395 1397 1399 1401 1403 1405 1408 1410 1412 1415 1417 1420 1422 1425 1427 1430 1433 1436 1439 1442 1445 1448 1451 1454 1457 1460 1463 1465 1468 1470 1473 1475 1477 1480 1483 1485 1487 1490 1492 1495 1497 1499 1501 1502 1504 1506 1507 1509 1510 1512 1514 1515 1517 1518 1520 1521 1522 1524 1525 1526 1527 1528 1530 1531 1532 1533 1534
1389 1391 1394 1396 1398 1400 1402 1404 1406 1408 1411 1413 1415 1418 1421 1423 1426 1429 1432 1435 1437 1440 1442 1446 1449 1452 1455 1457 1460 1463 1466 1468 1471 1473 1476 1478 1481 1483 1486 1488 1490 1493 1495 1497 1498 1500 1502 1503 1505 1506 1508 1510 1511 1513 1515 1516 1518 1519 1521 1522 1523 1525 1526 1527 1528 1529 1530 1531 1533
1388 1391 1393 1395 1397 1399 1401 1402 1405 1406 1409 1411 1414 1416 1419 1422 1425 1427 1430 1432 1435 1438 1441 1444 1447 1450 1452 1456 1458 1461 1464 1466 1469 1472 1474 1477 1479 1481 1484 1486 1488 1491 1493 1495 1496 1498 1499 1501 1502 1504 1506 1507 1509 1511 1513 1514 1516 1517 1519 1520 1521 1523 1524 1525 1526 1528 1529 1530 1531
1387 1390 1392 1394 1396 1397 1399 1401 1403 1405 1407 1410 1412 1415 1418 1420 1422 1425 1427 1430 1433 1436 1439 1442 1445 1448 1451 1454 1457 1460 1462 1465 1467 1470 1472 1475 1477 1480 1482 1484 1486 1489 1491 1492 1494 1495 1497 1498 1500 1501 1503 1505 1507 1509 1511 1512 1513 1515 1516 1518 1519 1521 1522 1523 1525 1526 1527 1528 1529
1386 1389 1391 1393 1394 1396 1398 1400 1401 1404 1406 1408 1411 1413 1416 1418 1421 1423 1426 1428 1431 1434 1437 1440 1443 1446 1449 1452 1455 1458 1461 1463 1466 1468 1471 1473 1476 1478 1480 1482 1485 1486 1488 1490 1491 1493 1494 1496 1497 1499 1501 1503 1505 1507 1508 1510 1511 1513 1514 1516 1517 1519 1520 1521 1523 1524 1525 1526 1527
1386 1388 1390 1391 1393 1395 1396 1398 1401 1403 1405 1407 1409 1412 1414 1417 1419 1422 1424 1427 1429 1432 1435 1438 1441 1444 1447 1450 1453 1456 1459 1461 1464 1467 1469 1472 1474 1476 1478 1481 1482 1484 1486 1487 1489 1490 1491 1493 1494 1496 1498 1501 1503 1505 1506 1507 1509 1511 1512 1514 1515 1517 1518 1520 1521 1522 1523 1524 1526
1386 1387 1389 1390 1392 1394 1396 1398 1400 1402 1404 1406 1409 1411 1413 1415 1418 1420 1423 1425 1428 1431 1433 1436 1439 1442 1446 1449 1452 1455 1457 1461 1463 1466 1468 1471 1473 1475 1477 1479 1481 1482 1483 1485 1486 1487 1489 1491 1492 1494 1497 1499 1501 1502 1504 1505 1507 1508 1510 1512 1513 1515 1516 1518 1519 1520 1521 1522 1524
1385 1386 1388 1389 1391 1394 1396 1398 1400 1402 1404 1406 1408 1410 1412 1415 1417 1419 1422 1425 1427 1430 1433 1436 1439 1442 1445 1448 1451 1454 1457 1460 1462 1465 1467 1469 1471 1474 1476 1477 1478 1480 1481 1482 1484 1485 1486 1488 1491 1493 1496 1497 1499 1500 1502 1503 1505 1506 1508 1510 1511 1513 1514 1516 1517 1518 1520 1521 1522
1384 1386 1387 1390 1392 1394 1396 1398 1400 1402 1404 1406 1408 1410 1412 1415 1417 1420 1422 1425 1427 1430 1433 1436 1439 1441 1444 1447 1450 1453 1456 1458 1461 1463 1466 1468 1470 1472 1474 1475 1476 1477 1479 1480 1481 1483 1485 1487 1489 1492 1494 1496 1497 1498 1500 1501 1503 1504 1506 1508 1509 1511 1512 1514 1515 1517 1518 1519 1520
1384 1386 1388 1390 1392 1394 1396 1398 1400 1402 1404 1406 1408 1410 1412 1415 1417 1420 1422 1425 1427 1430 1433 1436 1438 1441 1444 1446 1449 1452 1455 1457 1459 1462 1464 1466 1468 1470 1471 1473 1474 1475 1476 1478 1480 1481 1483 1486 1488 1491 1492 1494 1495 1496 1498 1500 1501 1503 1504 1506 1508 1509 1511 1512 1514 1515 1516 1517 1519